CW9659 Weather Reports


time (UTC)temp
C
wind
direction
speed
KPH
gust
KPH
rain 1hr
cm
rain 24hr
cm
rain mn
cm
humidity
%
barometer
mb
20260906003903 31 119 0.0 1.6 0.00 0.00 0.00 65 1009.0
20260906003403 31 138 0.0 1.6 0.00 0.00 0.00 64 1009.1
20260906002903 31 138 0.0 4.8 0.00 0.00 0.00 64 1009.2
20260906002403 31 124 3.2 4.8 0.00 0.00 0.00 64 1009.3
20260906001903 31 117 1.6 3.2 0.00 0.00 0.00 64 1009.3
20260906001403 31 122 0.0 3.2 0.00 0.00 0.00 65 1009.4
20260905234903 31 72 0.0 0.0 0.00 0.00 0.00 62 1009.4
20260905234404 31 72 0.0 0.0 0.00 0.00 0.00 61 1009.4
20260905233904 32 72 0.0 0.0 0.00 0.00 0.00 60 1009.3
20260905233404 32 72 0.0 0.0 0.00 0.00 0.00 60 1009.2
20260905232904 32 72 0.0 1.6 0.00 0.00 0.00 60 1009.2
20260905231904 32 72 0.0 0.0 0.00 0.00 0.00 60 1009.2
20260905231404 32 72 0.0 0.0 0.00 0.00 0.00 60 1009.1
20260905230904 32 72 0.0 0.0 0.00 0.00 0.00 61 1009.1
20260905230403 32 72 0.0 0.0 0.00 0.00 0.00 60 1009.0
20260905225904 32 72 0.0 0.0 0.00 0.00 0.00 60 1008.9
20260905225404 32 72 0.0 1.6 0.00 0.00 0.00 60 1008.9
20260905224903 32 72 0.0 0.0 0.00 0.00 0.00 58 1008.8
20260905224403 32 72 0.0 0.0 0.00 0.00 0.00 57 1009.0
20260905223903 32 72 0.0 0.0 0.00 0.00 0.00 57 1009.1
20260905223403 33 72 0.0 1.6 0.00 0.00 0.00 57 1009.1
20260905222904 33 72 0.0 1.6 0.00 0.00 0.00 55 1009.2
20260905222404 33 72 0.0 0.0 0.00 0.00 0.00 55 1009.0
20260905221903 33 72 0.0 0.0 0.00 0.00 0.00 54 1009.1
20260905221404 34 72 0.0 0.0 0.00 0.00 0.00 54 1009.1
20260905220903 35 72 0.0 0.0 0.00 0.00 0.00 53 1009.0
20260905220403 35 72 0.0 0.0 0.00 0.00 0.00 51 1009.0
20260905215903 35 72 0.0 0.0 0.00 0.00 0.00 50 1009.1
20260905215403 35 72 0.0 1.6 0.00 0.00 0.00 49 1009.1
20260905214404 36 172 0.0 1.6 0.00 0.00 0.00 48 1009.0
20260905213903 36 132 0.0 1.6 0.00 0.00 0.00 48 1009.0
20260905213403 36 182 0.0 3.2 0.00 0.00 0.00 48 1009.0
20260905212904 36 334 0.0 1.6 0.00 0.00 0.00 47 1009.1
20260905212404 36 356 0.0 1.6 0.00 0.00 0.00 47 1009.1
20260905211903 37 301 1.6 3.2 0.00 0.00 0.00 46 1009.2
20260905211403 37 350 0.0 3.2 0.00 0.00 0.00 45 1009.1
20260905210904 37 55 0.0 4.8 0.00 0.00 0.00 45 1009.1
20260905210403 37 60 1.6 4.8 0.00 0.00 0.00 44 1009.2
20260905205904 37 302 0.0 3.2 0.00 0.00 0.00 45 1009.3
20260905205403 37 311 1.6 3.2 0.00 0.00 0.00 45 1009.3
20260905204904 37 305 1.6 4.8 0.00 0.00 0.00 44 1009.4
20260905204404 38 190 1.6 4.8 0.00 0.00 0.00 44 1009.4
20260905203904 38 81 1.6 3.2 0.00 0.00 0.00 44 1009.5
20260905203403 38 333 0.0 1.6 0.00 0.00 0.00 44 1009.6
20260905202904 37 309 1.6 1.6 0.00 0.00 0.00 44 1009.7
20260905202403 37 41 0.0 3.2 0.00 0.00 0.00 45 1009.6
20260905201904 37 25 1.6 4.8 0.00 0.00 0.00 44 1009.6
20260905201403 37 202 0.0 3.2 0.00 0.00 0.00 45 1009.6
20260905200903 37 273 0.0 1.6 0.00 0.00 0.00 44 1009.7
20260905200403 37 5 1.6 3.2 0.00 0.00 0.00 45 1009.8
20260905195903 36 289 1.6 4.8 0.00 0.00 0.00 49 1010.0
20260905195403 36 182 1.6 3.2 0.00 0.00 0.00 48 1010.0
20260905194404 36 189 0.0 1.6 0.00 0.00 0.00 49 1010.2
20260905193903 37 182 0.0 3.2 0.00 0.00 0.00 48 1010.2
20260905193403 37 175 1.6 4.8 0.00 0.00 0.00 48 1010.3
20260905192903 37 60 1.6 3.2 0.00 0.00 0.00 47 1010.4
20260905192403 37 88 1.6 3.2 0.00 0.00 0.00 46 1010.5
20260905191903 37 236 1.6 3.2 0.00 0.00 0.00 48 1010.6
20260905191404 36 359 0.0 4.8 0.00 0.00 0.00 48 1010.5
20260905190903 36 232 0.0 1.6 0.00 0.00 0.00 49 1010.5
20260905190403 36 339 0.0 1.6 0.00 0.00 0.00 49 1010.7
20260905185403 36 215 1.6 4.8 0.00 0.00 0.00 48 1010.8
20260905184903 36 356 0.0 3.2 0.00 0.00 0.00 47 1010.7
20260905183404 36 190 0.0 3.2 0.00 0.00 0.00 51 1010.7
20260905182904 36 43 1.6 4.8 0.00 0.00 0.00 51 1010.9
20260905182403 36 285 0.0 4.8 0.00 0.00 0.00 51 1011.1
20260905181903 36 319 1.6 4.8 0.00 0.00 0.00 51 1011.1
20260905181404 36 174 1.6 3.2 0.00 0.00 0.00 52 1011.2
20260905180403 35 275 1.6 4.8 0.00 0.00 0.00 52 1011.4
20260905175903 35 9 0.0 4.8 0.00 0.00 0.00 54 1011.4
20260905175404 35 237 1.6 4.8 0.00 0.00 0.00 53 1011.6
20260905174903 35 262 0.0 1.6 0.00 0.00 0.00 54 1011.7
20260905174404 35 74 1.6 9.7 0.00 0.00 0.00 52 1011.8
20260905173404 35 190 0.0 3.2 0.00 0.00 0.00 57 1011.9
20260905172904 34 182 0.0 3.2 0.00 0.00 0.00 55 1011.9
20260905172404 35 181 1.6 4.8 0.00 0.00 0.00 55 1012.0
20260905170403 34 347 1.6 4.8 0.00 0.00 0.00 56 1011.9
20260905165903 33 302 0.0 3.2 0.00 0.00 0.00 56 1011.9
20260905165404 33 183 1.6 4.8 0.00 0.00 0.00 56 1012.0
20260905164904 34 128 1.6 3.2 0.00 0.00 0.00 56 1012.1
20260905164403 34 278 1.6 4.8 0.00 0.00 0.00 57 1012.1
20260905163904 34 236 1.6 3.2 0.00 0.00 0.00 58 1012.1
20260905162904 33 223 1.6 9.7 0.00 0.00 0.00 58 1012.2
20260905162403 33 197 1.6 11.3 0.00 0.00 0.00 60 1012.3
20260905161904 33 227 1.6 9.7 0.00 0.00 0.00 59 1012.3
20260905161403 33 328 1.6 4.8 0.00 0.00 0.00 57 1012.3
20260905160904 33 71 0.0 4.8 0.00 0.00 0.00 59 1012.4
20260905160403 33 53 1.6 4.8 0.00 0.00 0.00 59 1012.4
20260905155403 33 200 0.0 3.2 0.00 0.00 0.00 58 1012.5
20260905154903 34 150 1.6 4.8 0.00 0.00 0.00 58 1012.5
20260905154404 34 342 1.6 4.8 0.00 0.00 0.00 58 1012.6
20260905153903 34 271 1.6 4.8 0.00 0.00 0.00 60 1012.7
20260905152903 33 204 0.0 3.2 0.00 0.00 0.00 60 1012.5
20260905152403 33 201 0.0 3.2 0.00 0.00 0.00 61 1012.5
20260905151903 33 57 0.0 3.2 0.00 0.00 0.00 61 1012.5
20260905151403 33 41 1.6 3.2 0.00 0.00 0.00 61 1012.5
20260905150904 33 76 0.0 3.2 0.00 0.00 0.00 60 1012.5
20260905150403 33 125 0.0 3.2 0.00 0.00 0.00 61 1012.6
20260905145904 33 66 0.0 3.2 0.00 0.00 0.00 62 1012.7
20260905145403 33 45 0.0 1.6 0.00 0.00 0.00 65 1012.6
20260905144903 32 104 1.6 3.2 0.00 0.00 0.00 65 1012.6
20260905144404 32 264 1.6 4.8 0.00 0.00 0.00 67 1012.6
20260905143904 32 242 0.0 1.6 0.00 0.00 0.00 70 1012.6
20260905143403 31 283 0.0 1.6 0.00 0.00 0.00 70 1012.6
20260905142904 31 201 0.0 1.6 0.00 0.00 0.00 71 1012.6
20260905142404 31 204 0.0 1.6 0.00 0.00 0.00 73 1012.5
20260905141904 30 207 0.0 1.6 0.00 0.00 0.00 75 1012.5
20260905140904 30 229 0.0 3.2 0.00 0.00 0.00 77 1012.6
20260905135904 28 205 0.0 0.0 0.00 0.00 0.00 81 1012.7
20260905134904 27 206 0.0 3.2 0.00 0.00 0.00 84 1012.8
20260905134403 27 205 0.0 0.0 0.00 0.00 0.00 84 1012.8
20260905133904 26 205 0.0 0.0 0.00 0.00 0.00 84 1012.8
20260905132903 26 205 0.0 0.0 0.00 0.00 0.00 83 1012.9
20260905132404 25 205 0.0 0.0 0.00 0.00 0.00 82 1012.9
20260905131904 25 205 0.0 0.0 0.00 0.00 0.00 79 1012.9
20260905131404 25 204 0.0 0.0 0.00 0.00 0.00 74 1012.9
20260905130903 25 204 0.0 0.0 0.00 0.00 0.00 73 1013.0
20260905130403 24 204 0.0 0.0 0.00 0.00 0.00 70 1013.0
20260905125904 24 204 0.0 0.0 0.00 0.00 0.00 71 1013.1
20260905125403 23 204 0.0 0.0 0.00 0.00 0.00 70 1013.1
20260905124904 23 204 0.0 0.0 0.00 0.00 0.00 68 1013.1
20260905124404 23 204 0.0 0.0 0.00 0.00 0.00 67 1013.1
20260905123903 23 204 0.0 0.0 0.00 0.00 0.00 68 1013.1
20260905123404 23 204 0.0 0.0 0.00 0.00 0.00 67 1013.1
20260905122404 23 204 0.0 0.0 0.00 0.00 0.00 65 1013.2
20260905121903 22 204 0.0 0.0 0.00 0.00 0.00 66 1013.1
20260905121404 22 204 0.0 0.0 0.00 0.00 0.00 66 1013.0
20260905120403 22 204 0.0 0.0 0.00 0.00 0.00 68 1012.9
20260905115404 22 204 0.0 0.0 0.00 0.00 0.00 69 1012.8
20260905114903 22 204 0.0 0.0 0.00 0.00 0.00 69 1012.8
20260905114404 22 204 0.0 0.0 0.00 0.00 0.00 69 1012.7
20260905113903 22 204 0.0 0.0 0.00 0.00 0.00 70 1012.6
20260905113403 22 204 0.0 0.0 0.00 0.00 0.00 70 1012.5
20260905112903 22 204 0.0 0.0 0.00 0.00 0.00 71 1012.5
20260905112403 22 204 0.0 0.0 0.00 0.00 0.00 71 1012.4
20260905111404 22 204 0.0 0.0 0.00 0.00 0.00 72 1012.4
20260905110903 22 204 0.0 0.0 0.00 0.00 0.00 72 1012.3
20260905110404 23 204 0.0 0.0 0.00 0.00 0.00 71 1012.2
20260905105904 23 204 0.0 0.0 0.00 0.00 0.00 71 1012.1
20260905105403 23 203 0.0 0.0 0.00 0.00 0.00 71 1012.1
20260905104904 23 203 0.0 0.0 0.00 0.00 0.00 71 1012.1
20260905104404 23 203 0.0 0.0 0.00 0.00 0.00 73 1012.1
20260905103903 23 203 0.0 0.0 0.00 0.00 0.00 73 1012.1
20260905103403 23 203 0.0 0.0 0.00 0.00 0.00 73 1012.0
20260905102904 23 203 0.0 0.0 0.00 0.00 0.00 73 1012.0
20260905102403 23 203 0.0 0.0 0.00 0.00 0.00 73 1012.0
20260905101904 23 203 0.0 0.0 0.00 0.00 0.00 75 1011.9
20260905101404 23 203 0.0 0.0 0.00 0.00 0.00 74 1011.8
20260905100903 23 203 0.0 1.6 0.00 0.00 0.00 74 1011.8
20260905095904 23 204 0.0 0.0 0.00 0.00 0.00 76 1011.8
20260905095404 23 204 0.0 0.0 0.00 0.00 0.00 78 1011.7
20260905094403 23 204 0.0 0.0 0.00 0.00 0.00 79 1011.6
20260905093904 23 204 0.0 0.0 0.00 0.00 0.00 79 1011.6
20260905093403 23 204 0.0 0.0 0.00 0.00 0.00 79 1011.5
20260905092904 23 204 0.0 0.0 0.00 0.00 0.00 80 1011.6
20260905092404 23 204 0.0 0.0 0.00 0.00 0.00 79 1011.5
20260905091903 23 204 0.0 0.0 0.00 0.00 0.00 80 1011.5
20260905090904 23 204 0.0 0.0 0.00 0.00 0.00 79 1011.4
20260905090404 23 204 0.0 0.0 0.00 0.00 0.00 79 1011.4
20260905085904 23 204 0.0 0.0 0.00 0.00 0.00 80 1011.3
20260905085403 23 204 0.0 0.0 0.00 0.00 0.00 80 1011.4
20260905084903 23 204 0.0 0.0 0.00 0.00 0.00 80 1011.4
20260905084403 24 204 0.0 0.0 0.00 0.00 0.00 80 1011.4
20260905083404 24 204 0.0 0.0 0.00 0.00 0.00 80 1011.4
20260905082403 24 204 0.0 0.0 0.00 0.00 0.00 80 1011.6
20260905081904 24 204 0.0 0.0 0.00 0.00 0.00 81 1011.6
20260905081403 24 204 0.0 0.0 0.00 0.00 0.00 81 1011.5
20260905080903 24 204 0.0 0.0 0.00 0.00 0.00 80 1011.6
20260905080404 24 204 0.0 0.0 0.00 0.00 0.00 80 1011.6
20260905075903 24 204 0.0 0.0 0.00 0.00 0.00 80 1011.6
20260905075404 24 204 0.0 0.0 0.00 0.00 0.00 82 1011.7
20260905074903 24 204 0.0 0.0 0.00 0.00 0.00 82 1011.7
20260905074403 24 204 0.0 0.0 0.00 0.00 0.00 82 1011.7
20260905073904 24 204 0.0 0.0 0.00 0.00 0.00 83 1011.8
20260905073403 24 204 0.0 0.0 0.00 0.00 0.00 84 1011.7
20260905072904 24 204 0.0 0.0 0.00 0.00 0.00 84 1011.7
20260905072403 24 204 0.0 0.0 0.00 0.00 0.00 84 1011.8
20260905071903 25 204 0.0 0.0 0.00 0.00 0.00 84 1011.8
20260905071403 25 204 0.0 0.0 0.00 0.00 0.00 84 1011.8
20260905070903 25 204 0.0 0.0 0.00 0.00 0.00 85 1011.8
20260905070403 25 204 0.0 0.0 0.00 0.00 0.00 85 1011.9
20260905065904 25 204 0.0 0.0 0.00 0.00 0.00 85 1011.9
20260905065404 25 204 0.0 0.0 0.00 0.00 0.00 85 1011.9
20260905064403 25 204 0.0 0.0 0.00 0.00 0.00 85 1011.9
20260905063904 25 204 0.0 0.0 0.00 0.00 0.00 85 1012.0
20260905062903 25 204 0.0 0.0 0.00 0.00 0.00 85 1012.1
20260905062404 25 204 0.0 0.0 0.00 0.00 0.00 85 1012.2
20260905061903 25 204 0.0 0.0 0.00 0.00 0.00 85 1012.2
20260905060404 25 204 0.0 0.0 0.00 0.00 0.00 85 1012.2
20260905055903 25 204 0.0 0.0 0.00 0.00 0.00 85 1012.3
20260905055403 25 204 0.0 0.0 0.00 0.00 0.00 85 1012.3
20260905054903 25 204 0.0 0.0 0.00 0.00 0.00 85 1012.3
20260905054403 25 204 0.0 0.0 0.00 0.00 0.00 85 1012.4
20260905053904 25 204 0.0 0.0 0.00 0.00 0.00 85 1012.4
20260905053404 25 204 0.0 0.0 0.00 0.00 0.00 85 1012.4
20260905050904 25 204 0.0 0.0 0.00 0.00 0.00 84 1012.5
20260905050404 26 204 0.0 0.0 0.00 0.00 0.00 84 1012.5
20260905045904 26 204 0.0 0.0 0.00 0.00 0.00 84 1012.5
20260905045403 26 204 0.0 0.0 0.00 0.00 0.00 83 1012.4
20260905043904 26 204 0.0 0.0 0.00 0.00 0.00 83 1012.4
20260905042903 26 204 0.0 0.0 0.00 0.00 0.00 83 1012.3
20260905041904 26 204 0.0 0.0 0.00 0.00 0.00 83 1012.4
20260905041404 26 204 0.0 0.0 0.00 0.00 0.00 81 1012.4
20260905040904 26 204 0.0 0.0 0.00 0.00 0.00 81 1012.4
20260905040404 27 204 0.0 0.0 0.00 0.00 0.00 81 1012.4
20260905035904 27 204 0.0 0.0 0.00 0.00 0.00 81 1012.5
20260905035404 27 204 0.0 0.0 0.00 0.00 0.00 80 1012.5
20260905034903 27 204 0.0 0.0 0.00 0.00 0.00 81 1012.5
20260905034404 27 204 0.0 0.0 0.00 0.00 0.00 81 1012.5
20260905033903 27 204 0.0 1.6 0.00 0.00 0.00 80 1012.5
20260905033403 27 204 0.0 0.0 0.00 0.00 0.00 79 1012.5
20260905032903 27 204 0.0 0.0 0.00 0.00 0.00 79 1012.5
20260905032403 27 204 0.0 0.0 0.00 0.00 0.00 78 1012.5
20260905031903 28 204 0.0 0.0 0.00 0.00 0.00 77 1012.5
20260905030903 28 204 0.0 0.0 0.00 0.00 0.00 76 1012.5
20260905030403 29 204 0.0 0.0 0.00 0.00 0.00 74 1012.5
20260905025403 28 203 0.0 3.2 0.00 0.00 0.00 73 1012.5
20260905023904 29 203 0.0 1.6 0.00 0.00 0.00 72 1012.4
20260905022904 29 203 0.0 0.0 0.00 0.00 0.00 71 1012.4
20260905021904 30 203 0.0 1.6 0.00 0.00 0.00 71 1012.2
20260905020904 30 203 0.0 1.6 0.00 0.00 0.00 70 1012.3
20260905020403 30 203 0.0 1.6 0.00 0.00 0.00 71 1012.3
20260905015904 30 203 0.0 3.2 0.00 0.00 0.00 71 1012.3
20260905014903 30 203 0.0 1.6 0.00 0.00 0.00 70 1012.3
20260905014403 30 203 0.0 0.0 0.00 0.00 0.00 69 1012.4
20260905013903 30 203 0.0 1.6 0.00 0.00 0.00 69 1012.3
20260905013403 30 203 1.6 1.6 0.00 0.00 0.00 69 1012.2
20260905012904 30 203 0.0 0.0 0.00 0.00 0.00 69 1012.2
20260905012403 30 203 1.6 3.2 0.00 0.00 0.00 69 1012.1
20260905011903 31 203 0.0 3.2 0.00 0.00 0.00 69 1012.2
20260905011403 31 203 0.0 3.2 0.00 0.00 0.00 68 1012.2
20260905010903 31 203 0.0 3.2 0.00 0.00 0.00 67 1012.2
20260905010404 31 203 0.0 3.2 0.00 0.00 0.00 66 1012.2
20260905005403 31 203 0.0 3.2 0.00 0.00 0.00 65 1012.2
20260905004903 31 203 1.6 1.6 0.00 0.00 0.00 65 1012.2